AirNav   Pilot Hours Calculator
 
 1639 users online  

KAOV Ava Bill Martin Memorial Airport
Ava, Missouri, USA

GOING TO AVA?


FAA INFORMATION EFFECTIVE 08 OCTOBER 2020

Location

FAA Identifier: AOV
Lat/Long: 36-58-18.7940N 092-40-55.0050W
36-58.313233N 092-40.916750W
36.9718872,-92.6819458
(estimated)
Elevation: 1311 ft. / 399.6 m (surveyed)
Variation: 02E (2000)
From city: 2 miles NW of AVA, MO
Time zone: UTC -5 (UTC -6 during Standard Time)
Zip code: 65608

Airport Operations

Airport use: Open to the public
Control tower: no
ARTCC: KANSAS CITY CENTER
FSS: COLUMBIA FLIGHT SERVICE STATION
NOTAMs facility: COU (NOTAM-D service available)
Attendance: UNATNDD
Wind indicator: lighted
Segmented circle: yes
Lights: ACTVT MIRL RY 13/31 - CTAF.
Beacon: white-green (lighted land airport)
Operates sunset to sunrise.

Airport Communications

CTAF/UNICOM: 122.7
SPRINGFIELD APPROACH: 126.35
SPRINGFIELD DEPARTURE: 126.35

Nearby radio navigation aids

VOR radial/distance  VOR name  Freq  Var
DGDr107/9.8DOGWOOD VORTAC109.4001E
SGFr122/38.8SPRINGFIELD VORTAC116.9004E

Airport Services

Fuel available: 100LL
Parking: tiedowns
Airframe service: MAJOR
Powerplant service: MAJOR
Bottled oxygen: NONE
Bulk oxygen: NONE

Runway Information

Runway 13/31

Dimensions: 3634 x 50 ft. / 1108 x 15 m
Surface: asphalt, in excellent condition
Runway edge lights: medium intensity
RUNWAY 13  RUNWAY 31
Latitude: 36-58.534085N36-58.093648N
Longitude: 092-41.169547W092-40.663890W
Elevation: 1277.0 ft.1311.0 ft.
Traffic pattern: leftleft
Runway heading: 135 magnetic, 137 true315 magnetic, 317 true
Markings: nonprecision, in good conditionnonprecision, in good condition
Visual slope indicator: 2-box SAVASI on left (3.00 degrees glide path)
Touchdown point: yes, no lightsyes, no lights
Obstructions: 33 ft. trees, 235 ft. from runway, 197 ft. right of centerline, 1:1 slope to clear
TREES 10-35' TALL, 10-175' FROM RUNWAY END, 150-250 FT RIGHT
none

Airport Ownership and Management from official FAA records

Ownership: Publicly-owned
Owner: CITY OF AVA
404 SOUTH JEFFERSON ST, P.O. BOX 967
AVA, MO 65608
Phone 417-683-5516
Manager: DAVID DAVIDSON
PO BOX 967
AVA, MO 65608
Phone 417-683-3169

Airport Operational Statistics

Aircraft based on the field: 10
Single engine airplanes: 8
Multi engine airplanes: 2
    
Aircraft operations: avg 127/week *
73% local general aviation
18% transient general aviation
8% military
<1% air taxi
* for 12-month period ending 31 December 2018

Additional Remarks

NTSD RY SAFETY AREA BYD RY 13 END, INSUF LENGTH AND LARGE DROP OFF.
100LL SELF SVC CREDIT CARD AVBL 24 HRS.
CLICK PCL 5 TIMES TO UNLOCK TERMINAL DOOR.
FOR CD CTC SPRINGFIELD APCH AT 417-868-5620/5619.

Instrument Procedures

NOTE: All procedures below are presented as PDF files. If you need a reader for these files, you should download the free Adobe Reader.

NOT FOR NAVIGATION. Please procure official charts for flight.
FAA instrument procedures published for use from 08 October 2020 at 0901Z to 05 November 2020 at 0900Z.

 
IAPs - Instrument Approach Procedures
RNAV (GPS) RWY 13   download (191KB)
RNAV (GPS) RWY 31   download (181KB)
VOR-A   download (188KB)
NOTE: Special Take-Off Minimums/Departure Procedures apply   download (158KB)

Other nearby airports with instrument procedures:

1MO - Mountain Grove Memorial Airport (20 nm NE)
KTVB - Cabool Memorial Airport (30 nm E)
3DW - Downtown Airport (31 nm NW)
KPLK - M Graham Clark Downtown Airport (33 nm SW)
KBBG - Branson Airport (36 nm SW)
 
Loc | Ops | Rwys | IFR | FBO | Links
Com | Nav | Svcs | Stats | Notes

Branson Jet Center
AirBoss

 
Area around KAOV (Ava Bill Martin Memorial Airport)
 
Road maps at: MapQuest Bing Google
 
Aerial photo
WARNING: Photo may not be current or correct
Aerial photo of KAOV (Ava Bill Martin Memorial Airport)
Do you have a better or more recent aerial photo of Ava Bill Martin Memorial Airport that you would like to share? If so, please send us your photo.

 
Sectional chart

 
Airport distance calculator
Flying to Ava Bill Martin Memorial Airport? Find the distance to fly.

From to KAOV

Sunrise and sunset
Times for 22-Oct-2020
 Local
(UTC-5)
 Zulu
(UTC)
Morning civil twilight07:0112:01
Sunrise07:2712:27
Sunset18:2323:23
Evening civil twilight18:5023:50

Current date and time
Zulu (UTC)  22-Oct-2020 18:01:18
Local (UTC-5)  22-Oct-2020 13:01:18
 
METAR
KBBG 
36nm SW 
221745Z 17011G16KT 10SM FEW043 27/17 A3002
KSGF 
37nm NW 
221752Z CLR 27/16 A2997 RMK AO2 PK WND 20026/1726 SLP136 T02720161 10272 20183 58016 $
KBPK 
38nm S 
221753Z AUTO 21013G17KT 10SM FEW043 27/16 A3002 RMK AO2 SLP155 T02720161 10278 20172 58016
KUNO 
38nm E 
221753Z AUTO 19011G18KT 10SM FEW037 27/17 A3004 RMK AO2 SLP161 T02670172 10267 20161 58019
KFWB 
38nm SW 
221735Z AUTO 20013G20KT 170V240 10SM CLR 28/17 A3001 RMK AO2
KLBO 
41nm N 
221755Z AUTO 20014G22KT 10SM CLR 27/14 A2999 RMK AO2
KFLP 
43nm S 
221756Z AUTO VRB05KT 10SM SCT041 28/18 A3001 RMK AO2 SLP157 T02780178 10283 20156 58017
KHRO 
48nm SW 
221753Z AUTO 17017G20KT 10SM CLR 27/16 A3002 RMK AO2 SLP153 T02720161 10272 20167 58012
TAF
KBBG 
36nm SW 
221720Z 2218/2318 17013KT P6SM SCT040 FM230000 16010KT P6SM SKC FM230600 19005KT P6SM FEW250 FM231000 22005KT P6SM -SHRA VCTS BKN050CB FM231200 28005KT 6SM -SHRA VCTS BKN030CB FM231300 33005KT 6SM -SHRA OVC015
KSGF 
37nm NW 
221141Z 2212/2312 17015KT P6SM FEW250 FM221700 19021G29KT P6SM SKC PROB30 2306/2310 4SM -SHRA BR BKN250 FM231000 28007KT P6SM BKN014 PROB30 2310/2311 4SM -SHRA BR OVC015 FM231100 32008KT P6SM OVC010 PROB30 2311/2312 4SM -SHRA BR OVC009
KBPK 
38nm S 
221720Z 2218/2318 18010G20KT P6SM SCT050 FM230200 15006KT P6SM SCT250 FM231000 17003KT P6SM VCSH BKN060 OVC120 FM231500 31006KT 5SM -SHRA BR BKN012 OVC040
NOTAMs
Click for the latest NOTAMs
NOTAMs are issued by the DoD/FAA and will open in a separate window not controlled by AirNav.

 

 
 

FBO, Fuel Providers, and Aircraft Ground Support

  
 Business Name 
 
 Contact 
 
 Services / Description 
 
Fuel Prices
 
Comments
  
City of Ava, Missouri 417-840-2301
417-683-5516
[web site]
[email]
Aviation fuel, Aircraft parking (ramp or tiedown), Passenger terminal and lounge, Aircraft maintenance, Rental cars delivered, Public telephone, Computerized weather, ...

More info about City of Ava, Missouri
Phillips 66
100LL
SS $3.89 
 Updated 05-Oct-2020
 
   write
SS=Self service
Update Fuel Prices
 

Would you like to see your business listed on this page?

 If your business provides an interesting product or service to pilots, flight crews, aircraft, or users of the Ava Bill Martin Memorial Airport, you should consider listing it here.  To start the listing process, click on the button below
 
Add a business
 

Other Pages about Ava Bill Martin Memorial Airport

Update a link
 
Copyright © AirNav, LLC. All rights reserved. Privacy Policy  Contact